Evansville, IN

7:14 AM CDT on August 17, 2017 (GMT -0500)
Evansville Regional

Weather History for KEVV - July, 2012

Change the Weather History Date:

Wednesday, July 25, 2012

  Actual Average Record
Temperature  
Mean Temperature 91 °F 78 °F  
Max Temperature 103 °F 88 °F 103 °F (1934)
Min Temperature 78 °F 67 °F 56 °F (2000)
Degree Days  
Heating Degree Days 0 0  
Month to date heating degree days 0 0  
Since 1 June heating degree days 9 6  
Since 1 July heating degree days 0 0  
Cooling Degree Days 26 13  
Month to date cooling degree days 508 325  
Year to date cooling degree days 1192 758  
Since 1 June cooling degree days 857 623  
Growing Degree Days 40 (Base 50)    
Moisture  
Dew Point 69 °F    
Average Humidity 54    
Maximum Humidity 79    
Minimum Humidity 29    
Precipitation  
Precipitation 0.00 in 0.12 in 2.51 in (1910)
Month to date precipitation 2.03 3.24  
Year to date precipitation 13.56 27.26  
Snow  
Snow 0.00 in 0.00 in - ()
Month to date snowfall 0.0 0.0  
Since 1 June snowfall 0.0 0.0  
Since 1 July snowfall 0.0 0.0  
Snow Depth 0.00 in    
Sea Level Pressure  
Sea Level Pressure 29.85 in    
Wind  
Wind Speed 8 mph (SW)    
Max Wind Speed 20 mph    
Max Gust Speed 25 mph    
Visibility 10 miles    
Events      
T = Trace of Precipitation, MM = Missing Value Source: NWS Daily Summary

Daily Weather History Graph

Daily Weather History Graph

Search for Another Location

Airport or City:

Trip Planner

Search our weather history database for the weather conditions in past years. The results will help you decide how hot, cold, wet, or windy it might be!

Date:

Astronomy

Jul. 25, 2012 Rise Set
Actual Time 5:47 AM CDT 8:05 PM CDT
Civil Twilight 5:17 AM CDT 8:34 PM CDT
Nautical Twilight 4:41 AM CDT 9:11 PM CDT
Astronomical Twilight 4:00 AM CDT 9:51 PM CDT
Moon 12:44 PM CDT (7/25) 11:39 PM CDT (7/25)
Length of Visible Light 15h 17m
Length of Day
14h 17m
Waxing Crescent, 42% of the Moon is Illuminated
Jul 25
Waxing Crescent
Jul 26
First Quarter
Aug 1
Full
Aug 9
Last Quarter
Aug 17
New

Hourly Weather History & Observations

Time (CDT) Temp. Heat Index Dew Point Humidity Pressure Visibility Wind Dir Wind Speed Gust Speed Precip Events Conditions
12:54 AM 84.0 °F 87.8 °F 69.1 °F 61% 29.90 in 10.0 mi SSW 3.5 mph - N/A   Clear
1:54 AM 84.0 °F 88.4 °F 70.0 °F 63% 29.90 in 10.0 mi Calm Calm - N/A   Clear
2:54 AM 81.0 °F 84.4 °F 70.0 °F 69% 29.90 in 10.0 mi SW 4.6 mph - N/A   Clear
3:54 AM 81.0 °F 84.4 °F 70.0 °F 69% 29.90 in 10.0 mi Calm Calm - N/A   Clear
4:54 AM 81.0 °F 84.9 °F 71.1 °F 72% 29.89 in 10.0 mi Calm Calm - N/A   Clear
5:54 AM 78.1 °F - 71.1 °F 79% 29.89 in 10.0 mi SSW 5.8 mph - N/A   Clear
6:54 AM 81.0 °F 84.9 °F 71.1 °F 72% 29.90 in 10.0 mi SSW 6.9 mph - N/A   Clear
7:54 AM 84.0 °F 89.0 °F 71.1 °F 65% 29.90 in 10.0 mi SSW 3.5 mph - N/A   Clear
8:54 AM 87.1 °F 92.8 °F 71.1 °F 59% 29.91 in 10.0 mi SW 8.1 mph - N/A   Clear
9:54 AM 89.1 °F 96.0 °F 72.0 °F 57% 29.91 in 10.0 mi WSW 5.8 mph - N/A   Mostly Cloudy
10:54 AM 93.9 °F 100.8 °F 71.1 °F 47% 29.90 in 10.0 mi WSW 8.1 mph - N/A   Partly Cloudy
11:54 AM 96.1 °F 103.5 °F 71.1 °F 44% 29.88 in 10.0 mi SW 9.2 mph - N/A   Clear
12:54 PM 99.0 °F 107.0 °F 71.1 °F 40% 29.86 in 10.0 mi West 5.8 mph - N/A   Clear
1:54 PM 100.9 °F 108.2 °F 69.1 °F 36% 29.83 in 10.0 mi West 8.1 mph 16.1 mph N/A   Scattered Clouds
2:54 PM 102.9 °F 106.8 °F 64.9 °F 29% 29.81 in 10.0 mi WSW 9.2 mph 20.7 mph N/A   Clear
3:54 PM 100.9 °F 106.0 °F 66.9 °F 33% 29.79 in 10.0 mi SW 12.7 mph - N/A   Scattered Clouds
4:54 PM 102.0 °F 106.6 °F 66.0 °F 31% 29.78 in 10.0 mi SSW 12.7 mph 20.7 mph N/A   Scattered Clouds
5:54 PM 100.9 °F 104.6 °F 64.9 °F 31% 29.77 in 10.0 mi SSW 17.3 mph 21.9 mph N/A   Scattered Clouds
6:54 PM 98.1 °F 99.6 °F 63.0 °F 31% 29.77 in 10.0 mi WSW 13.8 mph - N/A   Clear
7:54 PM 93.9 °F 96.1 °F 64.9 °F 38% 29.78 in 10.0 mi WSW 12.7 mph - N/A   Clear
8:54 PM 91.0 °F 93.8 °F 66.0 °F 44% 29.79 in 10.0 mi SW 12.7 mph - N/A   Clear
9:54 PM 89.1 °F 92.1 °F 66.9 °F 48% 29.81 in 10.0 mi SW 12.7 mph - N/A   Clear
10:54 PM 86.0 °F 89.4 °F 68.0 °F 55% 29.80 in 10.0 mi SSW 6.9 mph - N/A   Clear
11:54 PM 86.0 °F 90.1 °F 69.1 °F 57% 29.79 in 10.0 mi SSW 9.2 mph - N/A   Clear